Location: BGSU Observatory
(41.3799°N, 83.6397°W)
Time: 13:19:10
(UTC-05:00)

Amateur Radio Satellites - All Passes

Search period start: 18 December 2014 12:49
Search period end: 19 December 2014 12:49
Location: BGSU Observatory, 41.3799°N, 83.6397°W

Satellite Date Start Highest point End Downlink Frequencies (MHz)
Time Altitude Azimuth
Oscar 19 18 Dec 12:54:35 12:59:35 55° 72° (ENE) 13:04:38 437.125/150
ESTCUBE 1 18 Dec 13:01:12 13:04:35 21° 294° (WNW) 13:07:56 437.505/2401.250
ITAMSAT 1 18 Dec 13:05:28 13:09:47 28° 66° (ENE) 13:14:07 435.822/435.867
BEESAT 2 18 Dec 13:23:04 13:25:27 15° 109° (ESE) 13:27:51 435.950
ITUPSAT 1 18 Dec 13:27:15 13:31:21 28° 96° (E) 13:35:26 437.325
SWISSCUBE 18 Dec 13:27:45 13:32:00 31° 97° (E) 13:36:12 437.505
SPROUT 18 Dec 13:46:53 13:50:29 27° 292° (WNW) 13:54:05 437.525
TISAT 1 18 Dec 13:52:10 13:55:24 22° 293° (WNW) 13:58:38 437.305
BEESAT 18 Dec 13:53:00 13:57:41 53° 100° (E) 14:02:19 436.000
ISS 18 Dec 13:58:33 14:00:42 16° 132° (SE) 14:02:51 145.825
KKS-1 18 Dec 14:02:16 14:04:18 13° 91° (E) 14:06:19 437.445
RS-15 18 Dec 14:03:11 14:13:51 56° 312° (NW) 14:24:39 29.354- 29.394
AO-7 18 Dec 14:06:27 14:12:36 24° 52° (NE) 14:18:45 29.400- 29.500
AIST 2 18 Dec 14:14:44 14:18:14 25° 113° (ESE) 14:21:46 435.215
BEESAT 3 18 Dec 14:21:32 14:25:37 73° 120° (ESE) 14:29:46 437.485
Gurwin Techsat 1B 18 Dec 14:24:08 14:29:27 86° 76° (ENE) 14:34:48 435.225
HORYU 2 18 Dec 14:28:42 14:32:47 36° 70° (ENE) 14:36:54 437.375
PCSat 18 Dec 14:31:08 14:36:24 56° 114° (ESE) 14:41:43 145.827
AUBIESAT-1 18 Dec 14:34:06 14:38:24 50° 104° (ESE) 14:42:20 437.475
Oscar 19 18 Dec 14:35:52 14:39:16 18° 268° (W) 14:42:41 437.125/150
ITAMSAT 1 18 Dec 14:44:20 14:49:06 37° 262° (W) 14:53:54 435.822/435.867
M-CUBED/EXP-1 PRIME 18 Dec 14:57:47 15:02:17 79° 290° (WNW) 15:06:22 437.505
BEESAT 2 18 Dec 14:59:15 15:03:16 51° 306° (NW) 15:07:22 435.950
ITUPSAT 1 18 Dec 15:05:02 15:09:13 31° 292° (WNW) 15:13:22 437.325
SWISSCUBE 18 Dec 15:05:43 15:09:45 28° 293° (WNW) 15:13:45 437.505
BEESAT 18 Dec 15:31:58 15:35:06 18° 297° (WNW) 15:38:13 436.000
ISS 18 Dec 15:33:43 15:36:58 58° 328° (NNW) 15:40:14 145.825
KKS-1 18 Dec 15:36:54 15:41:18 59° 287° (WNW) 15:45:42 437.445
STARS 18 Dec 15:38:28 15:42:55 85° 285° (WNW) 15:47:22 437.465
JAS-2 18 Dec 15:42:08 15:48:39 32° 65° (ENE) 15:54:43 435.910
AIST 2 18 Dec 15:52:50 15:56:42 33° 310° (NW) 16:00:38 435.215
AO-7 18 Dec 15:56:04 16:04:24 85° 252° (WSW) 16:12:49 29.400- 29.500
BEESAT 3 18 Dec 16:01:54 16:04:18 15° 319° (NW) 16:06:43 437.485
AIST 1 18 Dec 16:02:59 16:04:56 13° 84° (E) 16:06:53
HORYU 2 18 Dec 16:06:11 16:09:33 21° 266° (W) 16:12:57 437.375
Gurwin Techsat 1B 18 Dec 16:08:31 16:10:05 11° 272° (W) 16:11:38 435.225
AUBIESAT-1 18 Dec 16:10:04 16:12:53 17° 303° (WNW) 16:15:34 437.475
PCSat 18 Dec 16:15:50 16:20:10 24° 313° (NW) 16:24:33 145.827
CUTE-I 18 Dec 16:19:54 16:20:27 10° 56° (NE) 16:21:00 437.470
RS-15 18 Dec 16:21:08 16:29:24 23° 343° (NNW) 16:37:50 29.354- 29.394
MOZHAYETS 4 18 Dec 16:29:55 16:32:51 17° 91° (E) 16:35:45
GONETS M04 18 Dec 16:30:16 16:38:16 37° 71° (ENE) 16:46:09
ISS 18 Dec 17:11:49 17:14:05 17° 347° (NNW) 17:16:21 145.825
Cubesat XI-IV 18 Dec 17:20:51 17:25:42 37° 68° (ENE) 17:30:34 437.490
JAS-2 18 Dec 17:25:47 17:33:21 56° 260° (W) 17:40:22 435.910
AIST 1 18 Dec 17:37:48 17:42:05 53° 281° (W) 17:46:23
AO-7 18 Dec 17:53:29 17:58:18 16° 271° (W) 18:03:10 29.400- 29.500
CUTE-I 18 Dec 17:54:16 17:59:34 73° 74° (ENE) 18:04:53 437.470
PRISM 18 Dec 18:05:41 18:09:01 23° 95° (E) 18:12:18 437.425
MOZHAYETS 4 18 Dec 18:05:52 18:10:20 49° 288° (WNW) 18:14:46
GONETS M04 18 Dec 18:26:58 18:35:15 49° 271° (W) 18:43:27
STRAND 1 18 Dec 18:37:41 18:41:43 23° 94° (E) 18:45:43 437.568
RS-15 18 Dec 18:38:36 18:47:09 24° 19° (NNE) 18:55:55 29.354- 29.394
MaSat-1 18 Dec 18:49:30 18:51:41 30° 61° (ENE) 18:53:59 437.345
ISS 18 Dec 18:49:43 18:51:40 15° 7° (N) 18:53:36 145.825
Cubesat XI-IV 18 Dec 19:01:18 19:05:50 28° 265° (W) 19:10:23 437.490
CUSAT 1 18 Dec 19:01:58 19:03:39 11° 59° (ENE) 19:05:23 437.405
CUBESAT XI-V 18 Dec 19:22:11 19:26:49 78° 102° (ESE) 19:31:24 437.345
CANX-2 18 Dec 19:35:25 19:38:12 17° 65° (ENE) 19:41:00 2200.000
CUTE-I 18 Dec 19:37:32 19:40:10 14° 270° (W) 19:42:50 437.470
DANDE 18 Dec 19:39:57 19:45:00 19° 65° (ENE) 19:50:33 436.750
PRISM 18 Dec 19:40:56 19:44:32 29° 291° (WNW) 19:48:06 437.425
HO-68 18 Dec 19:54:48 20:01:37 49° 66° (ENE) 20:08:27 435.675
DOVE 4 18 Dec 20:00:23 20:02:53 16° 65° (ENE) 20:05:24 437.250
COMPASS 1 18 Dec 20:03:02 20:06:18 22° 67° (ENE) 20:09:36 437.405
SEEDS 18 Dec 20:05:07 20:08:43 28° 69° (ENE) 20:12:21 437.485
CUTE 1.7 + AOD 2 18 Dec 20:05:21 20:09:09 32° 70° (ENE) 20:12:58 437.475
DX 1 18 Dec 20:10:58 20:11:49 11° 60° (ENE) 20:12:40 434.975-435.025
STRAND 1 18 Dec 20:16:16 20:21:02 41° 291° (WNW) 20:25:47 437.568
BRITE-PL 18 Dec 20:22:59 20:27:05 53° 74° (ENE) 20:31:08 437.365/2234.400
ISS 18 Dec 20:25:56 20:28:59 34° 27° (NNE) 20:32:01 145.825
DELFI C3 18 Dec 20:33:32 20:36:17 18° 66° (ENE) 20:39:04 145.870
Oscar 11 18 Dec 20:34:31 20:37:54 23° 67° (ENE) 20:41:18 145.826/435.025
CUBEBUG 2 18 Dec 20:39:56 20:42:28 16° 64° (ENE) 20:45:01 437.445
CUSAT 1 18 Dec 20:40:45 20:48:06 54° 76° (ENE) 20:56:21 437.405
CINEMA 3 18 Dec 20:41:00 20:44:25 25° 68° (ENE) 20:47:54 145.822/145.860
UKube-1 18 Dec 20:41:42 20:45:00 22° 66° (ENE) 20:48:19 .
RS-15 18 Dec 20:51:32 21:02:37 59° 49° (NE) 21:14:08 29.354- 29.394
VELOX 1 18 Dec 20:56:03 20:57:06 11° 60° (ENE) 20:58:09 145.980
ZACube-1 18 Dec 20:59:38 21:02:34 19° 66° (ENE) 21:05:31 437.345
GOMX 1 18 Dec 21:00:40 21:04:50 81° 258° (WSW) 21:09:01 467.674
CUBESAT XI-V 18 Dec 21:02:04 21:03:36 12° 299° (WNW) 21:05:07 437.345
AAUSAT CUBESAT 2 18 Dec 21:03:45 21:07:57 87° 257° (WSW) 21:12:13 437.432
CANX-2 18 Dec 21:09:44 21:13:48 43° 262° (W) 21:17:54 2200.000
UWE-3 18 Dec 21:21:09 21:24:59 37° 71° (ENE) 21:28:54 435.000/436.395/437.385
DANDE 18 Dec 21:21:42 21:29:12 85° 81° (E) 21:37:53 436.750
FUNcube-1 18 Dec 21:26:01 21:29:48 35° 70° (ENE) 21:33:40 145.935
AISAT 18 Dec 21:34:53 21:38:38 28° 68° (ENE) 21:42:23 437.250
DOVE 4 18 Dec 21:36:23 21:40:19 43° 261° (W) 21:44:18 437.250
COMPASS 1 18 Dec 21:38:06 21:41:51 31° 264° (W) 21:45:39 437.405
SO-50 18 Dec 21:40:52 21:45:10 45° 117° (ESE) 21:49:37 436.795
SEEDS 18 Dec 21:40:59 21:44:30 25° 265° (W) 21:48:03 437.485
CUTE 1.7 + AOD 2 18 Dec 21:41:49 21:45:07 22° 266° (W) 21:48:27 437.475
BEESAT 2 18 Dec 21:42:23 21:44:37 14° 40° (NE) 21:46:50 435.950
DX 1 18 Dec 21:43:04 21:47:25 79° 257° (WSW) 21:51:47 434.975-435.025
HO-68 18 Dec 21:43:09 21:49:28 33° 264° (W) 21:55:50 435.675
CUBEBUG 1 18 Dec 21:50:12 21:52:43 15° 64° (ENE) 21:55:13 437.445
ISS 18 Dec 22:02:36 22:05:31 30° 224° (SW) 22:08:25 145.825
BRITE-PL 18 Dec 22:04:28 22:05:58 12° 269° (W) 22:07:28 437.365/2234.400
DELFI C3 18 Dec 22:07:25 22:11:16 38° 262° (W) 22:15:09 145.870
50 SAT 18 Dec 22:09:53 22:13:45 51° 73° (ENE) 22:17:42 437.505
Oscar 11 18 Dec 22:10:00 22:13:53 32° 263° (W) 22:17:49 145.826/435.025
CUBEBUG 2 18 Dec 22:14:48 22:18:47 45° 261° (W) 22:22:52 437.445
HUMSAT D 18 Dec 22:15:17 22:19:23 76° 76° (ENE) 22:23:34 437.325/437.525
UKube-1 18 Dec 22:17:01 22:20:58 34° 262° (W) 22:24:56 .
CINEMA 3 18 Dec 22:18:07 22:21:35 25° 265° (W) 22:25:06 145.822/145.860
TIGRISAT 18 Dec 22:18:55 22:22:16 19° 93° (E) 22:25:37 435.000
ESTCUBE 1 18 Dec 22:23:40 22:27:49 36° 70° (ENE) 22:31:58 437.505/2401.250
CUSAT 1 18 Dec 22:24:15 22:30:59 35° 271° (W) 22:38:23 437.405
VELOX 1 18 Dec 22:28:36 22:33:02 80° 257° (WSW) 22:37:28 145.980
ZACube-1 18 Dec 22:34:48 22:38:40 37° 263° (W) 22:42:37 437.345
AIST 2 18 Dec 22:36:27 22:39:46 21° 45° (NE) 22:43:01 435.215
BEESAT 3 18 Dec 22:41:22 22:45:24 46° 53° (NE) 22:49:23 437.485
POPSAT HIP 1 18 Dec 22:43:52 22:47:05 21° 94° (E) 22:50:19 437.405
UNISAT 6 18 Dec 22:46:09 22:50:31 37° 97° (E) 22:54:53 437.425
UWE-3 18 Dec 22:58:50 23:01:42 18° 268° (W) 23:04:36 435.000/436.395/437.385
FUNcube-1 18 Dec 23:03:18 23:06:17 19° 267° (W) 23:09:19 145.935
RS-15 18 Dec 23:04:20 23:14:42 44° 251° (WSW) 23:25:32 29.354- 29.394
SPROUT 18 Dec 23:05:45 23:09:02 22° 67° (ENE) 23:12:19 437.525
DANDE 18 Dec 23:06:43 23:12:05 21° 275° (W) 23:17:56 436.750
TISAT 1 18 Dec 23:09:04 23:12:32 25° 68° (ENE) 23:16:00 437.305
AISAT 18 Dec 23:11:26 23:15:12 27° 264° (W) 23:18:58 437.250
DUCHIFAT 1 18 Dec 23:12:19 23:16:22 42° 99° (E) 23:20:25 145.980
ANTELSAT 18 Dec 23:17:37 23:22:21 79° 103° (ESE) 23:27:05 437.575/2403.000
PCSat 18 Dec 23:18:59 23:24:13 46° 55° (NE) 23:29:24 145.827
BEESAT 2 18 Dec 23:19:14 23:23:26 82° 239° (WSW) 23:27:35 435.950
BUGSAT 1 18 Dec 23:21:38 23:25:29 42° 99° (E) 23:29:21 437.445
SO-50 18 Dec 23:22:12 23:25:56 24° 316° (NW) 23:29:46 436.795
QB50P2 18 Dec 23:24:14 23:28:28 60° 101° (E) 23:32:41 145.880/145.840
CUBEBUG 1 18 Dec 23:24:23 23:28:39 52° 260° (W) 23:32:56 437.445
POLYITAN 1 18 Dec 23:32:16 23:36:33 75° 102° (ESE) 23:40:51 437.675
NANOSAT C BR1 18 Dec 23:36:24 23:40:40 82° 103° (ESE) 23:44:55 145.865
YUBILEINY 18 Dec 23:37:15 23:44:55 36° 85° (E) 23:52:33 435.215
50 SAT 18 Dec 23:47:42 23:49:18 12° 269° (W) 23:50:56 437.505
QB50P1 18 Dec 23:50:28 23:54:42 69° 285° (WNW) 23:58:56 145.935-145.965
AUBIESAT-1 18 Dec 23:52:21 23:52:57 10° 53° (NE) 23:53:33 437.475
TIGRISAT 18 Dec 23:54:44 23:59:11 44° 288° (WNW) 00:03:39 435.000
ESTCUBE 1 19 Dec 00:01:16 00:04:46 22° 266° (W) 00:08:17 437.505/2401.250
M-CUBED/EXP-1 PRIME 19 Dec 00:13:27 00:16:42 18° 58° (ENE) 00:19:59 437.505
AIST 2 19 Dec 00:14:29 00:18:37 47° 243° (WSW) 00:22:40 435.215
POPSAT HIP 1 19 Dec 00:19:13 00:23:03 33° 290° (WNW) 00:26:53 437.405
BEESAT 3 19 Dec 00:20:30 00:23:13 17° 250° (WSW) 00:25:56 437.485
UNISAT 6 19 Dec 00:23:22 00:27:05 24° 293° (WNW) 00:30:49 437.425
ITUPSAT 1 19 Dec 00:34:15 00:38:33 34° 69° (ENE) 00:42:52 437.325
SWISSCUBE 19 Dec 00:34:31 00:38:55 37° 69° (ENE) 00:43:19 437.505
SPROUT 19 Dec 00:41:04 00:44:55 33° 263° (W) 00:48:48 437.525
O/OREOS (USA 219) 19 Dec 00:43:14 00:46:46 24° 102° (ESE) 00:50:19 437.305
TISAT 1 19 Dec 00:44:42 00:48:16 27° 264° (W) 00:51:52 437.305
DUCHIFAT 1 19 Dec 00:49:07 00:51:54 17° 295° (WNW) 00:54:42 145.980
ANTELSAT 19 Dec 00:56:40 00:58:29 12° 299° (WNW) 01:00:19 437.575/2403.000
BUGSAT 1 19 Dec 00:58:12 01:00:39 16° 295° (WNW) 01:03:07 437.445
BEESAT 19 Dec 00:59:34 01:04:17 61° 73° (ENE) 01:09:01 436.000
KKS-1 19 Dec 01:01:25 01:03:26 13° 62° (ENE) 01:05:28 437.445
QB50P2 19 Dec 01:01:56 01:03:53 13° 297° (WNW) 01:05:50 145.880/145.840
PCSat 19 Dec 01:02:57 01:07:20 25° 252° (WSW) 01:11:42 145.827
Oscar 19 19 Dec 01:07:00 01:10:43 20° 92° (E) 01:14:26 437.125/150
POLYITAN 1 19 Dec 01:10:51 01:11:53 11° 299° (WNW) 01:12:56 437.675
AUBIESAT-1 19 Dec 01:22:13 01:27:00 71° 70° (ENE) 01:31:54 437.475
YUBILEINY 19 Dec 01:32:59 01:41:24 50° 285° (WNW) 01:49:50 435.215
M-CUBED/EXP-1 PRIME 19 Dec 01:46:26 01:51:11 62° 254° (WSW) 01:56:05 437.505
ITUPSAT 1 19 Dec 02:12:27 02:16:27 26° 265° (W) 02:20:29 437.325
SWISSCUBE 19 Dec 02:13:02 02:16:51 24° 266° (W) 02:20:42 437.505
O/OREOS (USA 219) 19 Dec 02:21:58 02:25:59 32° 299° (WNW) 02:30:02 437.305
KKS-1 19 Dec 02:35:08 02:39:32 65° 258° (WSW) 02:43:57 437.445
STARS 19 Dec 02:35:37 02:40:00 85° 76° (ENE) 02:44:24 437.465
BEESAT 19 Dec 02:39:59 02:42:31 14° 269° (W) 02:45:03 436.000
Gurwin Techsat 1B 19 Dec 02:40:38 02:45:27 34° 97° (E) 02:50:14 435.225
Oscar 19 19 Dec 02:45:18 02:50:20 51° 289° (WNW) 02:55:20 437.125/150
ITAMSAT 1 19 Dec 02:56:33 03:01:45 78° 103° (ESE) 03:06:55 435.822/435.867
AUBIESAT-1 19 Dec 03:00:01 03:02:23 14° 266° (W) 03:04:47 437.475
MOZHAYETS 4 19 Dec 03:32:28 03:35:27 17° 64° (ENE) 03:38:26
AIST 1 19 Dec 03:45:14 03:49:11 35° 77° (ENE) 03:53:05
HORYU 2 19 Dec 03:56:19 04:00:51 75° 103° (ESE) 04:05:21 437.375
AO-7 19 Dec 03:58:09 04:05:30 33° 96° (E) 04:12:46 29.400- 29.500
Gurwin Techsat 1B 19 Dec 04:20:43 04:25:18 31° 293° (WNW) 04:29:53 435.225
VERMONT LUNAR 19 Dec 04:27:34 04:30:48 34° 158° (SSE) 04:34:02 437.305
PHONESAT 2.4 19 Dec 04:32:44 04:35:51 27° 155° (SSE) 04:38:59 2401.200-2431.200
JAS-2 19 Dec 04:37:37 04:41:29 19° 90° (E) 04:45:08 435.910
ITAMSAT 1 19 Dec 04:37:55 04:40:34 14° 300° (WNW) 04:43:14 435.822/435.867
PRISM 19 Dec 04:57:04 05:00:04 19° 66° (ENE) 05:03:04 437.425
MOZHAYETS 4 19 Dec 05:07:43 05:12:14 52° 260° (W) 05:16:48
AIST 1 19 Dec 05:23:38 05:26:33 18° 273° (W) 05:29:27
GONETS M04 19 Dec 05:31:16 05:39:23 43° 87° (E) 05:47:29
HORYU 2 19 Dec 05:35:13 05:36:53 12° 299° (WNW) 05:38:33 437.375
Cubesat XI-IV 19 Dec 05:39:28 05:42:14 14° 90° (E) 05:44:59 437.490
AO-7 19 Dec 05:50:27 05:58:35 57° 295° (WNW) 06:06:40 29.400- 29.500
STRAND 1 19 Dec 05:53:32 05:58:07 35° 68° (ENE) 06:02:42 437.568
VERMONT LUNAR 19 Dec 06:05:24 06:08:56 75° 175° (S) 06:12:28 437.305
PHONESAT 2.4 19 Dec 06:10:40 06:14:16 69° 171° (S) 06:17:54 2401.200-2431.200
CUTE-I 19 Dec 06:11:51 06:16:25 29° 96° (E) 06:20:57 437.470
SO-50 19 Dec 06:12:06 06:16:48 45° 51° (NE) 06:21:30 436.795
JAS-2 19 Dec 06:21:31 06:27:06 53° 290° (WNW) 06:32:13 435.910
CUBESAT XI-V 19 Dec 06:25:32 06:30:12 76° 76° (ENE) 06:34:53 437.345
PRISM 19 Dec 06:31:23 06:35:19 38° 262° (W) 06:39:17 437.425
Cubesat XI-IV 19 Dec 07:17:32 07:22:50 72° 287° (WNW) 07:28:07 437.490
GONETS M04 19 Dec 07:27:52 07:36:08 43° 287° (WNW) 07:44:28
STRAND 1 19 Dec 07:32:56 07:37:18 28° 264° (W) 07:41:42 437.568
VERMONT LUNAR 19 Dec 07:43:42 07:47:12 63° 192° (SSW) 07:50:42 437.305
AO-7 19 Dec 07:46:00 07:49:34 14° 316° (NW) 07:53:09 29.400- 29.500
PHONESAT 2.4 19 Dec 07:49:18 07:52:55 71° 189° (S) 07:56:33 2401.200-2431.200
CUTE-I 19 Dec 07:51:41 07:56:30 36° 292° (WNW) 08:01:19 437.470
SO-50 19 Dec 07:53:11 07:57:06 24° 248° (WSW) 08:01:00 436.795
CUBESAT XI-V 19 Dec 08:07:11 08:08:10 11° 271° (W) 08:09:08 437.345
BRITE-PL 19 Dec 08:27:26 08:30:43 18° 94° (E) 08:34:08 437.365/2234.400
AAUSAT CUBESAT 2 19 Dec 08:48:44 08:51:14 15° 91° (E) 08:53:43 437.432
CANX-2 19 Dec 08:55:21 08:59:14 31° 96° (E) 09:03:04 2200.000
GOMX 1 19 Dec 09:01:46 09:05:56 30° 96° (E) 09:10:18 467.674
HO-68 19 Dec 09:09:39 09:16:34 49° 100° (E) 09:23:25 435.675
TIGRISAT 19 Dec 09:18:49 09:21:35 17° 64° (ENE) 09:24:24 435.000
COMPASS 1 19 Dec 09:21:40 09:25:42 40° 98° (E) 09:29:42 437.405
VERMONT LUNAR 19 Dec 09:22:24 09:25:12 22° 207° (SSW) 09:28:00 437.305
SEEDS 19 Dec 09:24:53 09:29:06 53° 100° (E) 09:33:16 437.485
CUTE 1.7 + AOD 2 19 Dec 09:26:06 09:30:25 64° 101° (E) 09:34:40 437.475
PHONESAT 2.4 19 Dec 09:28:10 09:31:22 29° 204° (SSW) 09:34:33 2401.200-2431.200
DX 1 19 Dec 09:32:37 09:35:31 17° 93° (E) 09:38:24 434.975-435.025
DOVE 4 19 Dec 09:34:23 09:38:58 47° 99° (E) 09:43:47 437.250
POPSAT HIP 1 19 Dec 09:37:54 09:40:36 17° 65° (ENE) 09:43:19 437.405
MaSat-1 19 Dec 09:41:22 09:43:43 76° 296° (WNW) 09:45:58 437.345
UNISAT 6 19 Dec 09:45:48 09:49:39 32° 69° (ENE) 09:53:36 437.425
YUBILEINY 19 Dec 09:47:43 09:53:03 17° 60° (ENE) 09:58:20 435.215
DELFI C3 19 Dec 09:48:11 09:51:46 28° 96° (E) 09:55:19 145.870
CUSAT 1 19 Dec 09:54:02 09:57:18 40° 91° (E) 10:01:34 437.405
Oscar 11 19 Dec 09:56:58 10:01:10 43° 99° (E) 10:05:18 145.826/435.025
HUMSAT D 19 Dec 10:01:36 10:03:38 13° 91° (E) 10:05:39 437.325/437.525
UKube-1 19 Dec 10:04:34 10:08:36 37° 98° (E) 10:12:36 .
BRITE-PL 19 Dec 10:04:56 10:09:23 47° 287° (WNW) 10:14:10 437.365/2234.400
DUCHIFAT 1 19 Dec 10:05:29 10:09:14 32° 70° (ENE) 10:12:59 145.980
CUBEBUG 2 19 Dec 10:05:36 10:09:53 36° 97° (E) 10:14:14 437.445
CINEMA 3 19 Dec 10:11:30 10:16:12 68° 101° (ESE) 10:21:05 145.822/145.860
BUGSAT 1 19 Dec 10:12:20 10:15:57 31° 70° (ENE) 10:19:32 437.445
ANTELSAT 19 Dec 10:16:59 10:21:19 70° 75° (ENE) 10:25:46 437.575/2403.000
QB50P2 19 Dec 10:17:34 10:21:35 45° 72° (ENE) 10:25:38 145.880/145.840
VELOX 1 19 Dec 10:20:21 10:23:33 19° 94° (E) 10:26:43 145.980
AAUSAT CUBESAT 2 19 Dec 10:23:04 10:27:08 45° 287° (WNW) 10:31:10 437.432
ZACube-1 19 Dec 10:23:06 10:27:22 40° 98° (E) 10:31:40 437.345
POLYITAN 1 19 Dec 10:25:43 10:29:50 56° 74° (ENE) 10:33:59 437.675
NANOSAT C BR1 19 Dec 10:29:20 10:33:28 61° 74° (ENE) 10:37:38 145.865
CANX-2 19 Dec 10:31:35 10:35:00 23° 292° (WNW) 10:38:24 2200.000
DANDE 19 Dec 10:38:10 10:41:28 71° 282° (WNW) 10:45:54 436.750
GOMX 1 19 Dec 10:39:54 10:43:59 30° 290° (WNW) 10:48:18 467.674
QB50P1 19 Dec 10:43:23 10:47:35 89° 77° (ENE) 10:51:50 145.935-145.965
UWE-3 19 Dec 10:46:53 10:51:29 86° 103° (ESE) 10:56:09 435.000/436.395/437.385
FUNcube-1 19 Dec 10:50:09 10:54:41 78° 102° (ESE) 10:59:16 145.935
O/OREOS (USA 219) 19 Dec 10:52:04 10:56:26 47° 64° (ENE) 11:00:47 437.305
TIGRISAT 19 Dec 10:53:46 10:57:56 47° 261° (W) 11:02:13 435.000
HO-68 19 Dec 10:57:47 11:04:01 34° 298° (WNW) 11:10:13 435.675
COMPASS 1 19 Dec 10:58:13 11:01:07 18° 294° (WNW) 11:04:01 437.405
AISAT 19 Dec 11:01:45 11:06:07 56° 101° (E) 11:10:28 437.250
SEEDS 19 Dec 11:02:06 11:04:28 15° 296° (WNW) 11:06:50 437.485
CUTE 1.7 + AOD 2 19 Dec 11:03:57 11:05:47 13° 297° (WNW) 11:07:37 437.475
DX 1 19 Dec 11:07:50 11:11:56 42° 289° (WNW) 11:16:01 434.975-435.025
POPSAT HIP 1 19 Dec 11:12:10 11:16:10 42° 261° (W) 11:20:11 437.405
DOVE 4 19 Dec 11:13:02 11:16:26 20° 294° (WNW) 11:19:58 437.250
CUBEBUG 1 19 Dec 11:13:47 11:17:30 27° 96° (E) 11:21:11 437.445
RS-15 19 Dec 11:16:57 11:26:10 33° 105° (ESE) 11:35:20 29.354- 29.394
UNISAT 6 19 Dec 11:23:01 11:26:29 23° 266° (W) 11:30:02 437.425
DELFI C3 19 Dec 11:23:37 11:26:54 23° 292° (WNW) 11:30:10 145.870
50 SAT 19 Dec 11:25:08 11:29:18 89° 284° (WNW) 11:33:28 437.505
Oscar 11 19 Dec 11:34:04 11:36:59 18° 295° (WNW) 11:39:54 145.826/435.025
HUMSAT D 19 Dec 11:35:31 11:39:45 56° 286° (WNW) 11:44:00 437.325/437.525
CUSAT 1 19 Dec 11:38:56 11:41:00 14° 300° (WNW) 11:43:21 437.405
UKube-1 19 Dec 11:41:20 11:44:30 20° 295° (WNW) 11:47:40 .
DUCHIFAT 1 19 Dec 11:41:58 11:45:09 21° 266° (W) 11:48:20 145.980
YUBILEINY 19 Dec 11:42:33 11:51:18 83° 82° (E) 12:00:00 435.215
CUBEBUG 2 19 Dec 11:42:44 11:46:23 24° 293° (WNW) 11:50:05 437.445
BUGSAT 1 19 Dec 11:48:22 11:51:28 21° 265° (W) 11:54:35 437.445
CINEMA 3 19 Dec 11:50:27 11:52:54 14° 297° (WNW) 11:55:23 145.822/145.860
ESTCUBE 1 19 Dec 11:52:51 11:57:23 79° 103° (ESE) 12:01:51 437.505/2401.250
QB50P2 19 Dec 11:55:18 11:57:45 15° 268° (W) 12:00:12 145.880/145.840
VELOX 1 19 Dec 11:56:09 12:00:15 38° 290° (WNW) 12:04:21 145.980
ANTELSAT 19 Dec 11:57:51 11:58:38 10° 272° (W) 11:59:25 437.575/2403.000
ZACube-1 19 Dec 12:00:07 12:03:28 21° 294° (WNW) 12:06:51 437.345
POLYITAN 1 19 Dec 12:04:29 12:06:08 12° 269° (W) 12:07:48 437.675
NANOSAT C BR1 19 Dec 12:08:33 12:09:44 11° 270° (W) 12:10:56 145.865
Oscar 19 19 Dec 12:23:48 12:28:10 29° 66° (ENE) 12:32:34 437.125/150
UWE-3 19 Dec 12:26:17 12:27:21 11° 299° (WNW) 12:28:25 435.000/436.395/437.385
SPROUT 19 Dec 12:27:29 12:31:34 41° 98° (E) 12:35:37 437.525
FUNcube-1 19 Dec 12:28:55 12:30:24 12° 298° (WNW) 12:31:54 145.935
TISAT 1 19 Dec 12:29:00 12:33:04 45° 99° (E) 12:37:07 437.305
O/OREOS (USA 219) 19 Dec 12:32:35 12:35:25 17° 260° (W) 12:38:16 437.305
ITAMSAT 1 19 Dec 12:37:58 12:40:58 16° 60° (ENE) 12:43:58 435.822/435.867
AISAT 19 Dec 12:39:48 12:42:17 15° 297° (WNW) 12:44:46 437.250
